Starlink 11442

operational
NORAD ID: 62885 Int'l Des: 2025-024 Owner: SPXS Country: US Constellation: starlink
LEOCIRCULAR

Starlink 11442について

説明を読み込み中...

リアルタイム位置

3D地球を読み込み中...

次回通過

高度履歴

Altitude vs Time

uPlot chart will show altitude changes over time

軌道要素

1 62885U 25024G 25351.62174793 .00207120 00000-0 15758-2 0 9997
2 62885 42.9994 315.7586 0000939 52.0251 308.0701 15.70868589 50561
Epoch: Dec 17, 2025 • Age: 6 hours

現在のステータス

高度 364.0 km
速度 7.69 km/s
衛星直下点 -29.31°S, 121.72°W
打ち上げ日 Feb 4, 2025
運用期間 0.8 years
タイプ internet

技術仕様

分類 Payload
質量 960.00 kg
乾燥質量 910.00 kg
総質量 960.00 kg
長さ 0.30 m
直径 4.10 m
スパン 29.00 m
形状 Box + pan
製造者 SPXS
バスタイプ Starlink V2MD
フェーズステータス In Orbit
所有者/国 SPXS/US

大規模コンステレーション

Loading constellations...